Content
SEND FEEDBACK

Daily
Averages
Monthly
Summary
United States of America

FRESNO, CALIFORNIA


Home > North America > United States > California
Elevation: 328 feet     Latitude: 36 46N     Longitude: 119 43W

WEATHER
 
SELECT A DAY
Number of Records: 178,787;   Date Range: 1/1/95 - 9/22/14
 
SHARE

PRINT THIS DATA

[ ← Previous Day ]
WEATHER ALMANAC - JANUARY 23, 2013
[ Next Day → ]
[ °C ]   °F
Weather ElementAverageHighLow
Temperature54.8 °F66 °F (12:53 pm)43 °F (1:53 am)
Dewpoint40 °F45 °F (11:53 pm)36 °F (6:53 am)
Humidity59.3 %80 % (1:53 am)34 % (12:53 pm)
Barometer30.05 in30.10 in (9:53 am)30.01 in (6:53 am)
Wind Speed4.4 mph17.3 mph (8:53 pm)
Wind Gust17.3 mph (3:53 pm)
Weather ElementAverage
Visibility8.3 mi
Wind DirectionESE (109.1 °)

Weather ElementTotal
Precipitation---
Heating Degree Days10.5 (Base 65)
Growing Degree Days4.5 (Base 50)
Averaged from 23 records on January 23, 2013
WEATHER CONDITIONS BREAKOUT
WIND DIRECTION BREAKOUT
WEATHER BY HOUR - JANUARY 23, 2013
[ °C ]   °F
Local TimeTemperatureDewpointHumidityBarometerVisibilityWind DirectionWind SpeedGust SpeedPrecipitationEventsConditions
1:53 AM43.0 °F37.0 °F80 %30.06 in7.0 miCalmOvercast
2:53 AM44.1 °F37.0 °F76 %30.04 in7.0 miCalmOvercast
3:53 AM45.0 °F37.0 °F74 %30.03 in8.0 miCalmOvercast
4:53 AM44.1 °F37.0 °F76 %30.02 in8.0 miCalmOvercast
5:53 AM44.1 °F37.0 °F76 %30.02 in9.0 miENE (60°)3.5 mphMostly Cloudy
6:53 AM46.9 °F36.0 °F66 %30.01 in10.0 miEast (90°)8.1 mphMostly Cloudy
7:53 AM46.0 °F39.0 °F76 %30.05 in6.0 miCalmHaze
8:53 AM50.0 °F39.0 °F66 %30.06 in5.0 miENE (60°)4.6 mphHaze
9:53 AM53.1 °F37.9 °F57 %30.10 in9.0 miEast (80°)4.6 mphOvercast
10:53 AM57.0 °F37.9 °F49 %30.09 in10.0 miEast (100°)3.5 mphOvercast
11:53 AM62.1 °F39.0 °F43 %30.07 in10.0 miEast (80°)8.1 mphOvercast
12:53 PM66.0 °F37.0 °F34 %30.04 in10.0 miEast (90°)3.5 mphOvercast
1:53 PM66.0 °F39.9 °F38 %30.01 in10.0 miEast (80°)5.8 mphOvercast
2:53 PM64.0 °F42.1 °F45 %30.01 in10.0 miSouth (180°)4.6 mphOvercast
3:53 PM64.9 °F39.0 °F39 %30.01 in10.0 miSW (230°)8.1 mph17.3 mphOvercast
4:53 PM61.0 °F41.0 °F48 %30.02 in8.0 miWest (280°)4.6 mphOvercast
5:53 PM60.1 °F43.0 °F53 %30.05 in7.0 miVariable3.5 mph0.00 inOvercast
6:53 PM59.0 °F44.1 °F58 %30.05 in7.0 miENE (60°)4.6 mph0.00 inOvercast
7:53 PM59.0 °F43.0 °F55 %30.04 in10.0 miNNW (340°)3.5 mph0.00 inOvercast
8:53 PM57.9 °F44.1 °F60 %30.06 in10.0 miSSW (210°)17.3 mphOvercast
9:53 PM57.0 °F44.1 °F62 %30.08 in7.0 miWest (280°)5.8 mph0.00 inOvercast
10:53 PM57.0 °F44.1 °F62 %30.09 in7.0 miNNE (30°)4.6 mphOvercast
11:53 PM54.0 °F45.0 °F72 %30.08 in7.0 miWest (260°)3.5 mphOvercast
Hourly data recorded from KFAT, located miles away from Fresno, California







STORIES FROM OUR PARTNERS